START_TIME,STEP,MOV.,M29,t_acc.,H22,t_acc.,H26,t_acc.,H30,t_acc.
1979-03-01 00:00:21.350 ,3,1,0.,24.0,0.,24.0,0.,24.0,0.,24.0
1979-03-01 00:00:45.350 ,4,1,0.,24.0,0.,24.0,0.,24.0,0.,24.0
1979-03-01 00:01:09.350 ,5,1,0.,24.0,0.,24.0,0.,24.0,0.,24.0
1979-03-01 00:01:33.350 ,6,1,0.,24.0,0.,24.0,0.,24.0,0.,24.0
1979-03-01 00:01:57.350 ,7,1,0.,24.0,0.,24.0,0.,24.0,0.,24.0
1979-03-01 00:02:21.350 ,7,1,0.,24.0,0.,24.0,0.,24.0,0.,24.0
1979-03-01 00:02:45.350 ,6,1,0.,24.0,0.,24.0,0.,24.0,0.,24.0
1979-03-01 00:03:09.350 ,5,1,0.,24.0,0.,24.0,0.,24.0,0.,24.0
1979-03-01 00:03:33.350 ,4,1,0.,24.0,0.,24.0,0.,24.0,0.,24.0
1979-03-01 00:03:57.350 ,3,1,0.,24.0,0.,24.0,0.,24.0,0.,24.0
1979-03-01 00:04:21.350 ,2,1,0.,24.0,0.,24.0,0.,24.0,0.,24.0
1979-03-01 00:04:45.350 ,1,1,0.,24.0,0.,24.0,0.,24.0,0.,24.0
1979-03-01 00:05:09.350 ,0,1,1.,24.0,0.,24.0,0.,24.0,0.,24.0
1979-03-01 00:05:33.350 ,0,1,0.,24.0,0.,24.0,0.,24.0,0.,24.0
1979-03-01 00:05:57.350 ,1,1,0.,24.0,0.,24.0,0.,24.0,0.,24.0
1979-03-01 00:06:21.350 ,2,1,0.,24.0,0.,24.0,0.,24.0,0.,24.0
1979-03-01 00:06:45.350 ,3,1,0.,24.0,0.,24.0,0.,24.0,0.,24.0
1979-03-01 00:07:09.350 ,4,1,0.,24.0,0.,24.0,0.,24.0,0.,24.0
1979-03-01 00:07:33.350 ,5,1,0.,24.0,0.,24.0,0.,24.0,0.,24.0
1979-03-01 00:07:57.350 ,6,1,0.,24.0,0.,24.0,0.,24.0,0.,24.0
1979-03-01 00:08:21.350 ,7,1,0.,24.0,0.,24.0,0.,24.0,0.,24.0
1979-03-01 00:08:45.350 ,7,1,0.,24.0,0.,24.0,0.,24.0,0.,24.0
1979-03-01 00:09:09.350 ,6,1,0.,24.0,0.,24.0,0.,24.0,0.,24.0
1979-03-01 00:09:33.350 ,5,1,0.,24.0,0.,24.0,0.,24.0,0.,24.0
1979-03-01 00:09:57.350 ,4,1,0.,24.0,0.,24.0,0.,24.0,0.,24.0
1979-03-01 00:10:21.350 ,3,1,0.,24.0,0.,24.0,0.,24.0,0.,24.0
1979-03-01 00:10:45.350 ,2,1,0.,24.0,0.,24.0,0.,24.0,0.,24.0
1979-03-01 00:11:09.350 ,1,1,0.,24.0,0.,24.0,0.,24.0,0.,24.0
1979-03-01 00:11:33.350 ,0,1,0.,24.0,0.,24.0,0.,24.0,0.,24.0
1979-03-01 00:11:57.350 ,0,1,0.,24.0,0.,24.0,0.,24.0,0.,24.0
1979-03-01 00:12:21.350 ,1,1,0.,24.0,0.,24.0,0.,24.0,0.,24.0
1979-03-01 00:12:45.350 ,2,1,0.,24.0,0.,24.0,0.,24.0,0.,24.0
1979-03-01 00:13:09.350 ,3,1,0.,24.0,0.,24.0,0.,24.0,0.,24.0
1979-03-01 00:13:33.350 ,4,1,0.,24.0,0.,24.0,0.,24.0,0.,24.0
1979-03-01 00:13:57.350 ,5,1,0.,24.0,0.,24.0,0.,24.0,0.,24.0
1979-03-01 00:14:21.350 ,6,1,0.,24.0,0.,24.0,0.,24.0,0.,24.0
1979-03-01 00:14:45.350 ,7,1,0.,24.0,0.,24.0,0.,24.0,0.,24.0
1979-03-01 00:15:09.350 ,7,1,0.,24.0,0.,24.0,0.,24.0,0.,24.0
1979-03-01 00:15:33.350 ,6,1,0.,24.0,0.,24.0,0.,24.0,0.,24.0
1979-03-01 00:15:57.350 ,5,1,0.,24.0,0.,24.0,0.,24.0,0.,24.0
1979-03-01 00:16:21.350 ,4,1,0.,24.0,0.,24.0,0.,24.0,0.,24.0
1979-03-01 00:16:45.350 ,3,1,0.,24.0,0.,24.0,0.,24.0,0.,24.0
1979-03-01 00:17:09.350 ,2,1,0.,24.0,0.,24.0,0.,24.0,0.,24.0
1979-03-01 00:17:33.350 ,1,1,0.,24.0,0.,24.0,0.,24.0,0.,24.0
1979-03-01 00:17:57.350 ,0,1,0.,24.0,0.,24.0,0.,24.0,0.,24.0
1979-03-01 00:18:21.350 ,0,1,0.,24.0,0.,24.0,0.,24.0,0.,24.0
1979-03-01 00:18:45.350 ,1,1,0.,24.0,0.,24.0,0.,24.0,0.,24.0
1979-03-01 00:19:09.350 ,2,1,0.,24.0,0.,24.0,0.,24.0,0.,24.0
1979-03-01 00:19:33.350 ,3,1,0.,24.0,0.,24.0,0.,24.0,0.,24.0
1979-03-01 00:19:57.350 ,4,1,0.,24.0,0.,24.0,0.,24.0,0.,24.0
1979-03-01 00:20:21.350 ,0,0,0.,24.0,0.,24.0,0.,24.0,0.,24.0
1979-03-01 00:20:45.350 ,0,0,0.,24.0,0.,24.0,0.,24.0,0.,24.0
1979-03-01 00:21:09.350 ,7,1,0.,24.0,0.,24.0,0.,24.0,0.,24.0
1979-03-01 00:21:33.350 ,7,1,0.,24.0,0.,24.0,0.,24.0,0.,24.0
1979-03-01 00:21:57.350 ,6,1,0.,24.0,0.,24.0,0.,24.0,0.,24.0
1979-03-01 00:22:21.350 ,5,1,0.,24.0,0.,24.0,0.,24.0,0.,24.0
1979-03-01 00:22:45.350 ,4,1,0.,24.0,0.,24.0,0.,24.0,0.,24.0
1979-03-01 00:23:09.350 ,3,1,0.,24.0,0.,24.0,0.,24.0,0.,24.0
1979-03-01 00:23:33.350 ,2,1,0.,24.0,0.,24.0,0.,24.0,0.,24.0
1979-03-01 00:23:57.350 ,1,1,0.,24.0,0.,24.0,0.,24.0,0.,24.0
1979-03-01 00:24:21.350 ,0,1,0.,24.0,0.,24.0,0.,24.0,0.,24.0
1979-03-01 00:24:45.350 ,0,1,0.,24.0,0.,24.0,0.,24.0,0.,24.0
1979-03-01 00:25:09.350 ,1,1,0.,24.0,0.,24.0,0.,24.0,0.,24.0
1979-03-01 00:25:33.350 ,2,1,0.,24.0,0.,24.0,0.,24.0,0.,24.0
1979-03-01 00:25:57.350 ,3,1,0.,24.0,0.,24.0,0.,24.0,0.,24.0
1979-03-01 00:26:21.350 ,4,1,0.,24.0,0.,24.0,0.,24.0,0.,24.0
1979-03-01 00:26:45.350 ,5,1,0.,24.0,0.,24.0,0.,24.0,0.,24.0
1979-03-01 00:27:09.350 ,6,1,0.,24.0,0.,24.0,0.,24.0,0.,24.0
1979-03-01 00:27:33.350 ,7,1,0.,24.0,0.,24.0,0.,24.0,0.,24.0
1979-03-01 00:27:57.350 ,7,1,0.,24.0,0.,24.0,0.,24.0,0.,24.0
1979-03-01 00:28:21.350 ,6,1,0.,24.0,0.,24.0,0.,24.0,0.,24.0
1979-03-01 00:28:45.350 ,5,1,0.,24.0,0.,24.0,0.,24.0,0.,24.0
1979-03-01 00:29:09.350 ,4,1,0.,24.0,0.,24.0,0.,24.0,0.,24.0
1979-03-01 00:29:33.350 ,3,1,0.,24.0,0.,24.0,0.,24.0,0.,24.0
1979-03-01 00:29:57.350 ,2,1,0.,24.0,0.,24.0,0.,24.0,0.,24.0
1979-03-01 00:30:21.350 ,1,1,0.,24.0,0.,24.0,0.,24.0,0.,24.0
1979-03-01 00:30:45.350 ,0,1,0.,24.0,0.,24.0,0.,24.0,0.,24.0
1979-03-01 00:31:57.350 ,0,0,0.,24.0,0.,24.0,0.,24.0,0.,24.0
1979-03-01 00:32:21.350 ,3,1,0.,24.0,0.,24.0,0.,24.0,0.,24.0
1979-03-01 00:32:45.350 ,4,1,0.,24.0,0.,24.0,0.,24.0,0.,24.0
1979-03-01 00:33:09.350 ,5,1,0.,24.0,0.,24.0,0.,24.0,0.,24.0
1979-03-01 00:33:33.350 ,6,1,0.,24.0,0.,24.0,0.,24.0,0.,24.0
1979-03-01 00:33:57.350 ,7,1,0.,24.0,0.,24.0,0.,24.0,0.,24.0
1979-03-01 00:34:21.350 ,7,1,0.,24.0,0.,24.0,0.,24.0,0.,24.0
1979-03-01 00:34:45.350 ,6,1,0.,24.0,0.,24.0,0.,24.0,0.,24.0
1979-03-01 00:35:09.350 ,5,1,0.,24.0,0.,24.0,0.,24.0,0.,24.0
1979-03-01 00:35:33.350 ,4,1,0.,24.0,0.,24.0,0.,24.0,0.,24.0
1979-03-01 00:35:57.350 ,3,1,0.,24.0,0.,24.0,0.,24.0,0.,24.0
1979-03-01 00:36:21.350 ,2,1,0.,24.0,0.,24.0,0.,24.0,0.,24.0
1979-03-01 00:36:45.350 ,1,1,0.,24.0,0.,24.0,0.,24.0,0.,24.0
1979-03-01 00:37:09.350 ,0,1,0.,24.0,0.,24.0,0.,24.0,0.,24.0
1979-03-01 00:37:33.350 ,0,1,0.,24.0,0.,24.0,0.,24.0,0.,24.0
1979-03-01 00:37:57.350 ,1,1,0.,24.0,0.,24.0,0.,24.0,0.,24.0
1979-03-01 00:39:09.350 ,0,0,0.,24.0,0.,24.0,0.,24.0,0.,24.0
1979-03-01 00:39:33.350 ,5,1,0.,24.0,0.,24.0,0.,24.0,0.,24.0
1979-03-01 00:39:57.350 ,6,1,1.,24.0,0.,24.0,0.,24.0,0.,24.0
1979-03-01 00:40:21.350 ,7,1,0.,24.0,0.,24.0,0.,24.0,0.,24.0
1979-03-01 00:40:45.350 ,7,1,0.,24.0,0.,24.0,0.,24.0,0.,24.0
1979-03-01 00:41:09.350 ,6,1,0.,24.0,0.,24.0,0.,24.0,0.,24.0
1979-03-01 00:41:33.350 ,5,1,0.,24.0,0.,24.0,0.,24.0,0.,24.0
1979-03-01 00:41:57.350 ,4,1,0.,24.0,0.,24.0,0.,24.0,0.,24.0
1979-03-01 00:42:21.350 ,3,1,0.,24.0,0.,24.0,0.,24.0,0.,24.0
1979-03-01 00:42:45.350 ,2,1,0.,24.0,0.,24.0,0.,24.0,0.,24.0
1979-03-01 00:43:09.350 ,1,1,0.,24.0,0.,24.0,0.,24.0,0.,24.0
1979-03-01 00:43:33.350 ,0,1,0.,24.0,0.,24.0,0.,24.0,0.,24.0
1979-03-01 00:43:57.350 ,0,1,1.,24.0,0.,24.0,0.,24.0,0.,24.0
1979-03-01 00:44:21.350 ,1,1,0.,24.0,0.,24.0,0.,24.0,0.,24.0
1979-03-01 00:44:45.350 ,2,1,0.,24.0,0.,24.0,0.,24.0,0.,24.0
1979-03-01 00:45:09.350 ,3,1,0.,24.0,0.,24.0,0.,24.0,0.,24.0
1979-03-01 00:45:33.350 ,4,1,0.,24.0,0.,24.0,0.,24.0,0.,24.0
1979-03-01 00:45:57.350 ,5,1,0.,24.0,0.,24.0,0.,24.0,0.,24.0
1979-03-01 00:46:21.350 ,6,1,0.,24.0,0.,24.0,0.,24.0,0.,24.0
1979-03-01 00:46:45.350 ,7,1,0.,24.0,0.,24.0,0.,24.0,0.,24.0
1979-03-01 00:47:09.350 ,7,1,0.,24.0,0.,24.0,0.,24.0,0.,24.0
1979-03-01 00:47:33.350 ,6,1,0.,24.0,0.,24.0,0.,24.0,0.,24.0
1979-03-01 00:47:57.350 ,5,1,0.,24.0,0.,24.0,0.,24.0,0.,24.0
1979-03-01 00:48:21.350 ,4,1,0.,24.0,0.,24.0,0.,24.0,0.,24.0
1979-03-01 00:48:45.350 ,3,1,0.,24.0,0.,24.0,0.,24.0,0.,24.0
1979-03-01 00:49:09.350 ,2,1,0.,24.0,0.,24.0,0.,24.0,0.,24.0
1979-03-01 00:49:33.350 ,1,1,0.,24.0,0.,24.0,0.,24.0,0.,24.0
1979-03-01 00:49:57.350 ,0,1,0.,24.0,0.,24.0,0.,24.0,0.,24.0
1979-03-01 00:50:21.350 ,0,1,0.,24.0,0.,24.0,0.,24.0,0.,24.0
1979-03-01 00:50:45.350 ,1,1,0.,24.0,0.,24.0,0.,24.0,0.,24.0
1979-03-01 00:51:09.350 ,2,1,0.,24.0,0.,24.0,0.,24.0,0.,24.0
1979-03-01 00:51:33.350 ,3,1,0.,24.0,0.,24.0,0.,24.0,0.,24.0
1979-03-01 00:51:57.350 ,4,1,1.,24.0,0.,24.0,0.,24.0,0.,24.0
1979-03-01 00:52:21.350 ,5,1,0.,24.0,0.,24.0,0.,24.0,0.,24.0
1979-03-01 00:52:45.350 ,6,1,0.,24.0,0.,24.0,0.,24.0,0.,24.0
1979-03-01 00:53:09.350 ,7,1,0.,24.0,0.,24.0,0.,24.0,0.,24.0
1979-03-01 00:53:33.350 ,7,1,0.,24.0,0.,24.0,0.,24.0,0.,24.0
1979-03-01 00:53:57.350 ,6,1,0.,24.0,0.,24.0,1.,24.0,0.,24.0
1979-03-01 00:54:21.350 ,5,1,0.,24.0,0.,24.0,0.,24.0,0.,24.0
1979-03-01 00:54:45.350 ,4,1,0.,24.0,0.,24.0,0.,24.0,0.,24.0
1979-03-01 00:55:09.350 ,3,1,0.,24.0,0.,24.0,0.,24.0,0.,24.0
1979-03-01 00:55:33.350 ,2,1,0.,24.0,0.,24.0,0.,24.0,0.,24.0
1979-03-01 00:55:57.350 ,1,1,0.,24.0,0.,24.0,0.,24.0,0.,24.0
1979-03-01 00:56:21.350 ,0,1,0.,24.0,0.,24.0,0.,24.0,1.,24.0
1979-03-01 00:56:45.350 ,0,1,0.,24.0,0.,24.0,0.,24.0,0.,24.0
1979-03-01 00:57:09.350 ,1,1,0.,24.0,0.,24.0,0.,24.0,0.,24.0
1979-03-01 00:57:33.350 ,2,1,0.,24.0,0.,24.0,0.,24.0,0.,24.0
1979-03-01 00:57:57.350 ,3,1,0.,24.0,0.,24.0,0.,24.0,0.,24.0
1979-03-01 00:58:21.350 ,4,1,0.,24.0,0.,24.0,0.,24.0,0.,24.0
1979-03-01 00:58:45.350 ,5,1,0.,24.0,0.,24.0,0.,24.0,0.,24.0
1979-03-01 00:59:09.350 ,6,1,0.,24.0,0.,24.0,0.,24.0,0.,24.0
1979-03-01 00:59:33.350 ,7,1,0.,24.0,0.,24.0,0.,24.0,0.,24.0
1979-03-01 00:59:57.350 ,7,1,0.,24.0,0.,24.0,0.,24.0,0.,24.0
1979-03-01 01:00:21.350 ,6,1,0.,24.0,0.,24.0,0.,24.0,0.,24.0
1979-03-01 01:00:45.350 ,5,1,0.,24.0,0.,24.0,0.,24.0,0.,24.0
1979-03-01 01:01:09.350 ,4,1,0.,24.0,0.,24.0,0.,24.0,0.,24.0
1979-03-01 01:01:33.350 ,3,1,0.,24.0,0.,24.0,0.,24.0,0.,24.0
1979-03-01 01:01:57.350 ,2,1,0.,24.0,0.,24.0,0.,24.0,0.,24.0
1979-03-01 01:02:21.350 ,1,1,0.,24.0,0.,24.0,0.,24.0,0.,24.0
1979-03-01 01:02:45.350 ,0,1,0.,24.0,0.,24.0,0.,24.0,0.,24.0
1979-03-01 01:03:09.350 ,0,1,0.,24.0,0.,24.0,0.,24.0,0.,24.0
1979-03-01 01:03:33.350 ,1,1,0.,24.0,0.,24.0,0.,24.0,0.,24.0
1979-03-01 01:03:57.350 ,2,1,0.,24.0,0.,24.0,0.,24.0,0.,24.0
1979-03-01 01:04:21.350 ,3,1,0.,24.0,0.,24.0,0.,24.0,0.,24.0
1979-03-01 01:04:45.350 ,4,1,0.,24.0,0.,24.0,0.,24.0,0.,24.0
1979-03-01 01:05:09.350 ,5,1,0.,24.0,0.,24.0,0.,24.0,0.,24.0
1979-03-01 01:05:33.350 ,6,1,0.,24.0,0.,24.0,0.,24.0,0.,24.0
1979-03-01 01:05:57.350 ,7,1,0.,24.0,0.,24.0,0.,24.0,0.,24.0
1979-03-01 01:06:21.350 ,7,1,0.,24.0,0.,24.0,0.,24.0,0.,24.0
1979-03-01 01:06:45.350 ,6,1,0.,24.0,0.,24.0,0.,24.0,0.,24.0
1979-03-01 01:07:09.350 ,5,1,0.,24.0,0.,24.0,0.,24.0,0.,24.0
1979-03-01 01:07:33.350 ,4,1,0.,24.0,0.,24.0,0.,24.0,0.,24.0
1979-03-01 01:07:57.350 ,3,1,0.,24.0,0.,24.0,0.,24.0,0.,24.0
1979-03-01 01:08:21.350 ,2,1,0.,24.0,0.,24.0,0.,24.0,0.,24.0
1979-03-01 01:08:45.350 ,1,1,0.,24.0,0.,24.0,0.,24.0,0.,24.0
1979-03-01 01:09:09.350 ,0,1,0.,24.0,0.,24.0,0.,24.0,0.,24.0
1979-03-01 01:09:33.350 ,0,1,0.,24.0,0.,24.0,0.,24.0,0.,24.0
1979-03-01 01:09:57.350 ,1,1,0.,24.0,0.,24.0,0.,24.0,0.,24.0
1979-03-01 01:10:21.350 ,2,1,0.,24.0,0.,24.0,0.,24.0,0.,24.0
1979-03-01 01:10:45.350 ,3,1,0.,24.0,0.,24.0,0.,24.0,0.,24.0
1979-03-01 01:11:09.350 ,4,1,0.,24.0,0.,24.0,0.,24.0,0.,24.0
1979-03-01 01:11:33.350 ,5,1,0.,24.0,0.,24.0,0.,24.0,0.,24.0
1979-03-01 01:11:57.350 ,6,1,0.,24.0,0.,24.0,0.,24.0,0.,24.0
1979-03-01 01:12:21.350 ,7,1,0.,24.0,0.,24.0,0.,24.0,0.,24.0
1979-03-01 01:12:45.350 ,7,1,0.,24.0,0.,24.0,0.,24.0,0.,24.0
1979-03-01 01:13:09.350 ,6,1,0.,24.0,0.,24.0,0.,24.0,0.,24.0
1979-03-01 01:13:33.350 ,5,1,0.,24.0,0.,24.0,0.,24.0,0.,24.0
1979-03-01 01:13:57.350 ,4,1,0.,24.0,0.,24.0,0.,24.0,0.,24.0
1979-03-01 01:14:21.350 ,3,1,0.,24.0,0.,24.0,0.,24.0,0.,24.0
1979-03-01 01:14:45.350 ,2,1,0.,24.0,0.,24.0,0.,24.0,0.,24.0
1979-03-01 01:15:09.350 ,1,1,0.,24.0,0.,24.0,0.,24.0,0.,24.0
1979-03-01 01:15:33.350 ,0,1,0.,24.0,0.,24.0,0.,24.0,0.,24.0
1979-03-01 01:15:57.350 ,0,1,0.,24.0,0.,24.0,0.,24.0,0.,24.0
1979-03-01 01:16:21.350 ,1,1,0.,24.0,0.,24.0,0.,24.0,0.,24.0
1979-03-01 01:16:45.350 ,2,1,0.,24.0,0.,24.0,0.,24.0,0.,24.0
1979-03-01 01:17:09.350 ,3,1,0.,24.0,0.,24.0,0.,24.0,0.,24.0
1979-03-01 01:17:33.350 ,4,1,0.,24.0,0.,24.0,0.,24.0,0.,24.0
1979-03-01 01:17:57.350 ,5,1,0.,24.0,0.,24.0,0.,24.0,0.,24.0
1979-03-01 01:18:21.350 ,6,1,0.,24.0,0.,24.0,0.,24.0,0.,24.0
1979-03-01 01:18:45.350 ,7,1,0.,24.0,0.,24.0,0.,24.0,0.,24.0
1979-03-01 01:19:09.350 ,0,0,0.,24.0,0.,24.0,0.,24.0,0.,24.0
1979-03-01 01:19:33.350 ,6,1,0.,24.0,0.,24.0,0.,24.0,0.,24.0
1979-03-01 01:19:57.350 ,5,1,0.,24.0,0.,24.0,0.,24.0,0.,24.0
1979-03-01 01:20:21.350 ,4,1,0.,24.0,0.,24.0,0.,24.0,0.,24.0
1979-03-01 01:20:45.350 ,3,1,0.,24.0,0.,24.0,0.,24.0,0.,24.0
1979-03-01 01:21:09.350 ,2,1,0.,24.0,0.,24.0,0.,24.0,0.,24.0
1979-03-01 01:21:33.350 ,1,1,0.,24.0,0.,24.0,0.,24.0,0.,24.0
1979-03-01 01:21:57.350 ,0,1,0.,24.0,0.,24.0,0.,24.0,0.,24.0
1979-03-01 01:22:21.350 ,0,1,0.,24.0,0.,24.0,0.,24.0,0.,24.0
1979-03-01 01:22:45.350 ,1,1,0.,24.0,0.,24.0,0.,24.0,0.,24.0
1979-03-01 01:23:09.350 ,2,1,0.,24.0,0.,24.0,0.,24.0,0.,24.0
1979-03-01 01:23:33.350 ,3,1,0.,24.0,0.,24.0,0.,24.0,0.,24.0
1979-03-01 01:23:57.350 ,4,1,0.,24.0,0.,24.0,0.,24.0,0.,24.0
1979-03-01 01:24:21.350 ,5,1,0.,24.0,0.,24.0,0.,24.0,0.,24.0
1979-03-01 01:24:45.350 ,6,1,0.,24.0,0.,24.0,0.,24.0,0.,24.0
1979-03-01 01:25:09.350 ,7,1,0.,24.0,0.,24.0,0.,24.0,0.,24.0
1979-03-01 01:25:33.350 ,7,1,1.,24.0,0.,24.0,0.,24.0,0.,24.0
1979-03-01 01:25:57.350 ,6,1,0.,24.0,0.,24.0,0.,24.0,0.,24.0
1979-03-01 01:26:21.350 ,5,1,0.,24.0,0.,24.0,0.,24.0,0.,24.0
1979-03-01 01:26:45.350 ,4,1,0.,24.0,0.,24.0,0.,24.0,0.,24.0
1979-03-01 01:27:09.350 ,3,1,0.,24.0,0.,24.0,0.,24.0,0.,24.0
1979-03-01 01:27:33.350 ,2,1,1.,24.0,0.,24.0,0.,24.0,0.,24.0
1979-03-01 01:27:57.350 ,1,1,0.,24.0,0.,24.0,0.,24.0,0.,24.0
1979-03-01 01:28:21.350 ,0,1,0.,24.0,0.,24.0,0.,24.0,0.,24.0
1979-03-01 01:28:45.350 ,0,1,0.,24.0,0.,24.0,0.,24.0,0.,24.0
1979-03-01 01:29:09.350 ,1,1,1.,24.0,0.,24.0,0.,24.0,0.,24.0
1979-03-01 01:29:33.350 ,2,1,0.,24.0,0.,24.0,0.,24.0,0.,24.0
1979-03-01 01:29:57.350 ,3,1,0.,24.0,0.,24.0,0.,24.0,0.,24.0
1979-03-01 01:30:21.350 ,4,1,0.,24.0,0.,24.0,0.,24.0,0.,24.0
1979-03-01 01:30:45.350 ,5,1,0.,24.0,0.,24.0,0.,24.0,0.,24.0
1979-03-01 01:31:09.350 ,6,1,0.,24.0,0.,24.0,0.,24.0,0.,24.0
1979-03-01 01:31:33.350 ,7,1,0.,24.0,0.,24.0,0.,24.0,0.,24.0
1979-03-01 01:31:57.350 ,7,1,0.,24.0,0.,24.0,0.,24.0,0.,24.0
1979-03-01 01:32:21.350 ,6,1,0.,24.0,0.,24.0,0.,24.0,0.,24.0
1979-03-01 01:33:33.350 ,0,0,0.,24.0,0.,24.0,0.,24.0,0.,24.0
1979-03-01 01:33:57.350 ,2,1,0.,24.0,0.,24.0,0.,24.0,0.,24.0
1979-03-01 01:34:21.350 ,1,1,0.,24.0,0.,24.0,0.,24.0,0.,24.0
1979-03-01 01:34:45.350 ,0,1,0.,24.0,0.,24.0,0.,24.0,0.,24.0
1979-03-01 01:35:09.350 ,0,1,0.,24.0,0.,24.0,0.,24.0,0.,24.0
1979-03-01 01:35:33.350 ,1,1,0.,24.0,0.,24.0,0.,24.0,0.,24.0
1979-03-01 01:35:57.350 ,2,1,0.,24.0,0.,24.0,0.,24.0,0.,24.0
1979-03-01 01:36:21.350 ,3,1,0.,24.0,0.,24.0,0.,24.0,0.,24.0
1979-03-01 01:36:45.350 ,4,1,0.,24.0,0.,24.0,0.,24.0,0.,24.0
1979-03-01 01:37:09.350 ,5,1,0.,24.0,0.,24.0,0.,24.0,0.,24.0
1979-03-01 01:37:33.350 ,6,1,0.,24.0,0.,24.0,0.,24.0,0.,24.0
1979-03-01 01:37:57.350 ,7,1,0.,24.0,0.,24.0,0.,24.0,0.,24.0
1979-03-01 01:38:21.350 ,7,1,0.,24.0,0.,24.0,0.,24.0,0.,24.0
1979-03-01 01:38:45.350 ,6,1,0.,24.0,0.,24.0,0.,24.0,0.,24.0
1979-03-01 01:39:09.350 ,5,1,0.,24.0,0.,24.0,0.,24.0,0.,24.0
1979-03-01 01:39:33.350 ,4,1,0.,24.0,0.,24.0,0.,24.0,0.,24.0
1979-03-01 01:39:57.350 ,3,1,0.,24.0,0.,24.0,0.,24.0,0.,24.0
1979-03-01 01:40:21.350 ,2,1,0.,24.0,0.,24.0,0.,24.0,0.,24.0
1979-03-01 01:40:45.350 ,1,1,0.,24.0,0.,24.0,0.,24.0,0.,24.0
1979-03-01 01:41:09.350 ,0,1,0.,24.0,0.,24.0,0.,24.0,0.,24.0
1979-03-01 01:41:33.350 ,0,1,0.,24.0,0.,24.0,0.,24.0,0.,24.0
1979-03-01 01:41:57.350 ,1,1,0.,24.0,0.,24.0,0.,24.0,0.,24.0
1979-03-01 01:42:21.350 ,2,1,0.,24.0,0.,24.0,0.,24.0,0.,24.0
1979-03-01 01:42:45.350 ,3,1,0.,24.0,0.,24.0,0.,24.0,0.,24.0
1979-03-01 01:43:09.350 ,4,1,0.,24.0,0.,24.0,0.,24.0,0.,24.0
1979-03-01 01:43:33.350 ,5,1,0.,24.0,0.,24.0,0.,24.0,0.,24.0
1979-03-01 01:43:57.350 ,6,1,0.,24.0,0.,24.0,0.,24.0,0.,24.0
1979-03-01 01:44:21.350 ,7,1,0.,24.0,0.,24.0,0.,24.0,0.,24.0
1979-03-01 01:44:45.350 ,7,1,0.,24.0,0.,24.0,0.,24.0,0.,24.0
1979-03-01 01:45:09.350 ,6,1,0.,24.0,0.,24.0,0.,24.0,0.,24.0
1979-03-01 01:45:33.350 ,5,1,0.,24.0,0.,24.0,0.,24.0,0.,24.0
1979-03-01 01:45:57.350 ,4,1,0.,24.0,0.,24.0,0.,24.0,1.,24.0
1979-03-01 01:46:21.350 ,3,1,0.,24.0,0.,24.0,0.,24.0,0.,24.0
1979-03-01 01:46:45.350 ,2,1,0.,24.0,0.,24.0,0.,24.0,0.,24.0
1979-03-01 01:47:09.350 ,1,1,0.,24.0,0.,24.0,0.,24.0,0.,24.0
1979-03-01 01:47:33.350 ,0,1,0.,24.0,0.,24.0,0.,24.0,0.,24.0
1979-03-01 01:47:57.350 ,0,1,0.,24.0,0.,24.0,0.,24.0,0.,24.0
1979-03-01 01:48:21.350 ,1,1,0.,24.0,0.,24.0,0.,24.0,0.,24.0
1979-03-01 01:48:45.350 ,2,1,0.,24.0,0.,24.0,0.,24.0,0.,24.0
1979-03-01 01:49:09.350 ,3,1,0.,24.0,0.,24.0,0.,24.0,0.,24.0
1979-03-01 01:49:33.350 ,4,1,0.,24.0,0.,24.0,0.,24.0,0.,24.0
1979-03-01 01:49:57.350 ,5,1,0.,24.0,0.,24.0,0.,24.0,0.,24.0
1979-03-01 01:50:21.350 ,6,1,0.,24.0,0.,24.0,0.,24.0,0.,24.0
1979-03-01 01:50:45.350 ,7,1,0.,24.0,0.,24.0,0.,24.0,0.,24.0
1979-03-01 01:51:09.350 ,7,1,0.,24.0,0.,24.0,0.,24.0,0.,24.0
1979-03-01 01:51:33.350 ,6,1,0.,24.0,0.,24.0,0.,24.0,0.,24.0
1979-03-01 01:51:57.350 ,5,1,0.,24.0,0.,24.0,0.,24.0,0.,24.0
1979-03-01 01:52:21.350 ,4,1,0.,24.0,0.,24.0,0.,24.0,0.,24.0
1979-03-01 01:52:45.350 ,3,1,0.,24.0,0.,24.0,0.,24.0,0.,24.0
1979-03-01 01:53:09.350 ,2,1,0.,24.0,0.,24.0,0.,24.0,0.,24.0
1979-03-01 01:53:33.350 ,1,1,1.,24.0,0.,24.0,0.,24.0,0.,24.0
1979-03-01 01:53:57.350 ,0,1,0.,24.0,0.,24.0,0.,24.0,0.,24.0
1979-03-01 01:54:21.350 ,0,1,0.,24.0,0.,24.0,0.,24.0,0.,24.0
1979-03-01 01:54:45.350 ,1,1,0.,24.0,0.,24.0,0.,24.0,0.,24.0
1979-03-01 01:55:09.350 ,2,1,0.,24.0,0.,24.0,0.,24.0,0.,24.0
1979-03-01 01:55:33.350 ,3,1,0.,24.0,0.,24.0,0.,24.0,0.,24.0
1979-03-01 01:56:45.350 ,0,0,0.,24.0,0.,24.0,0.,24.0,0.,24.0
1979-03-01 01:57:09.350 ,7,1,0.,24.0,0.,24.0,0.,24.0,0.,24.0
1979-03-01 01:57:33.350 ,7,1,0.,24.0,0.,24.0,0.,24.0,0.,24.0
1979-03-01 01:57:57.350 ,6,1,0.,24.0,0.,24.0,0.,24.0,0.,24.0
1979-03-01 01:58:21.350 ,5,1,0.,24.0,0.,24.0,0.,24.0,0.,24.0
1979-03-01 01:58:45.350 ,4,1,0.,24.0,0.,24.0,0.,24.0,0.,24.0
1979-03-01 01:59:09.350 ,3,1,0.,24.0,0.,24.0,0.,24.0,0.,24.0
1979-03-01 01:59:33.350 ,2,1,0.,24.0,0.,24.0,0.,24.0,0.,24.0
1979-03-01 01:59:57.350 ,1,1,0.,24.0,0.,24.0,0.,24.0,0.,24.0
1979-03-01 02:00:21.350 ,0,1,0.,24.0,0.,24.0,0.,24.0,0.,24.0
1979-03-01 02:00:45.350 ,0,1,0.,24.0,0.,24.0,0.,24.0,0.,24.0
1979-03-01 02:01:09.350 ,1,1,0.,24.0,0.,24.0,0.,24.0,0.,24.0
1979-03-01 02:01:33.350 ,2,1,0.,24.0,0.,24.0,0.,24.0,0.,24.0
1979-03-01 02:01:57.350 ,3,1,0.,24.0,0.,24.0,0.,24.0,0.,24.0
1979-03-01 02:02:21.350 ,4,1,0.,24.0,0.,24.0,0.,24.0,0.,24.0
1979-03-01 02:02:45.350 ,5,1,0.,24.0,0.,24.0,0.,24.0,0.,24.0
1979-03-01 02:03:09.350 ,6,1,0.,24.0,0.,24.0,0.,24.0,0.,24.0
1979-03-01 02:03:33.350 ,7,1,0.,24.0,0.,24.0,0.,24.0,0.,24.0
1979-03-01 02:03:57.350 ,7,1,0.,24.0,0.,24.0,0.,24.0,0.,24.0
1979-03-01 02:04:21.350 ,6,1,0.,24.0,0.,24.0,0.,24.0,0.,24.0
1979-03-01 02:04:45.350 ,5,1,0.,24.0,0.,24.0,0.,24.0,0.,24.0
1979-03-01 02:05:09.350 ,4,1,0.,24.0,0.,24.0,0.,24.0,0.,24.0
1979-03-01 02:05:33.350 ,3,1,0.,24.0,0.,24.0,0.,24.0,0.,24.0
1979-03-01 02:05:57.350 ,2,1,0.,24.0,0.,24.0,0.,24.0,0.,24.0
1979-03-01 02:06:21.350 ,1,1,0.,24.0,0.,24.0,0.,24.0,0.,24.0
1979-03-01 02:06:45.350 ,0,1,0.,24.0,0.,24.0,0.,24.0,0.,24.0
1979-03-01 02:07:09.350 ,0,1,0.,24.0,0.,24.0,0.,24.0,0.,24.0
1979-03-01 02:07:33.350 ,1,1,0.,24.0,0.,24.0,0.,24.0,0.,24.0
1979-03-01 02:07:57.350 ,2,1,0.,24.0,0.,24.0,0.,24.0,0.,24.0
1979-03-01 02:08:21.350 ,3,1,0.,24.0,0.,24.0,0.,24.0,0.,24.0
1979-03-01 02:08:45.350 ,4,1,0.,24.0,0.,24.0,0.,24.0,0.,24.0
1979-03-01 02:09:09.350 ,5,1,0.,24.0,0.,24.0,0.,24.0,0.,24.0
1979-03-01 02:09:33.350 ,6,1,0.,24.0,0.,24.0,0.,24.0,0.,24.0
1979-03-01 02:09:57.350 ,7,1,0.,24.0,0.,24.0,0.,24.0,0.,24.0
1979-03-01 02:10:21.350 ,7,1,0.,24.0,0.,24.0,0.,24.0,0.,24.0
1979-03-01 02:10:45.350 ,6,1,0.,24.0,0.,24.0,0.,24.0,0.,24.0
1979-03-01 02:11:09.350 ,5,1,0.,24.0,0.,24.0,0.,24.0,0.,24.0
1979-03-01 02:11:33.350 ,4,1,0.,24.0,0.,24.0,0.,24.0,0.,24.0
1979-03-01 02:11:57.350 ,3,1,0.,24.0,0.,24.0,0.,24.0,0.,24.0
1979-03-01 02:12:21.350 ,2,1,0.,24.0,0.,24.0,0.,24.0,0.,24.0
1979-03-01 02:12:45.350 ,1,1,0.,24.0,0.,24.0,0.,24.0,0.,24.0
1979-03-01 02:13:09.350 ,0,1,0.,24.0,0.,24.0,0.,24.0,0.,24.0
1979-03-01 02:13:33.350 ,0,1,1.,24.0,0.,24.0,0.,24.0,0.,24.0
1979-03-01 02:13:57.350 ,1,1,0.,24.0,0.,24.0,0.,24.0,0.,24.0
1979-03-01 02:14:21.350 ,2,1,0.,24.0,0.,24.0,0.,24.0,0.,24.0
1979-03-01 02:14:45.350 ,3,1,0.,24.0,0.,24.0,0.,24.0,0.,24.0
1979-03-01 02:15:09.350 ,4,1,1.,24.0,0.,24.0,0.,24.0,0.,24.0
1979-03-01 02:15:33.350 ,5,1,0.,24.0,0.,24.0,0.,24.0,0.,24.0
1979-03-01 02:15:57.350 ,6,1,0.,24.0,0.,24.0,0.,24.0,0.,24.0
1979-03-01 02:16:21.350 ,7,1,0.,24.0,0.,24.0,0.,24.0,0.,24.0
1979-03-01 02:16:45.350 ,7,1,0.,24.0,0.,24.0,0.,24.0,0.,24.0
1979-03-01 02:17:09.350 ,6,1,0.,24.0,0.,24.0,0.,24.0,0.,24.0
1979-03-01 02:17:33.350 ,5,1,0.,24.0,0.,24.0,0.,24.0,0.,24.0
1979-03-01 02:17:57.350 ,4,1,0.,24.0,0.,24.0,0.,24.0,0.,24.0
1979-03-01 02:18:21.350 ,3,1,0.,24.0,0.,24.0,0.,24.0,0.,24.0
1979-03-01 02:18:45.350 ,2,1,0.,24.0,0.,24.0,0.,24.0,0.,24.0
1979-03-01 02:19:09.350 ,1,1,0.,24.0,0.,24.0,0.,24.0,0.,24.0
1979-03-01 02:19:33.350 ,0,1,0.,24.0,0.,24.0,0.,24.0,0.,24.0
1979-03-01 02:19:57.350 ,0,1,0.,24.0,0.,24.0,0.,24.0,0.,24.0
1979-03-01 02:20:21.350 ,1,1,0.,24.0,0.,24.0,0.,24.0,0.,24.0
1979-03-01 02:20:45.350 ,2,1,0.,24.0,0.,24.0,0.,24.0,0.,24.0
1979-03-01 02:21:09.350 ,3,1,0.,24.0,0.,24.0,0.,24.0,0.,24.0
1979-03-01 02:21:33.350 ,4,1,0.,24.0,0.,24.0,0.,24.0,0.,24.0
1979-03-01 02:21:57.350 ,5,1,0.,24.0,0.,24.0,0.,24.0,0.,24.0
1979-03-01 02:22:21.350 ,6,1,0.,24.0,0.,24.0,0.,24.0,0.,24.0
1979-03-01 02:22:45.350 ,7,1,0.,24.0,0.,24.0,0.,24.0,0.,24.0
1979-03-01 02:23:09.350 ,7,1,0.,24.0,0.,24.0,0.,24.0,0.,24.0
1979-03-01 02:23:33.350 ,6,1,0.,24.0,0.,24.0,0.,24.0,0.,24.0
1979-03-01 02:23:57.350 ,5,1,0.,24.0,0.,24.0,0.,24.0,0.,24.0
1979-03-01 02:24:21.350 ,4,1,0.,24.0,0.,24.0,0.,24.0,0.,24.0
1979-03-01 02:24:45.350 ,3,1,0.,24.0,0.,24.0,0.,24.0,1.,24.0
1979-03-01 02:25:09.350 ,2,1,0.,24.0,0.,24.0,0.,24.0,0.,24.0
1979-03-01 02:25:33.350 ,1,1,0.,24.0,0.,24.0,0.,24.0,0.,24.0
1979-03-01 02:25:57.350 ,0,1,0.,24.0,0.,24.0,0.,24.0,0.,24.0
1979-03-01 02:26:21.350 ,0,1,0.,24.0,0.,24.0,0.,24.0,0.,24.0
1979-03-01 02:26:45.350 ,1,1,0.,24.0,0.,24.0,0.,24.0,0.,24.0
1979-03-01 02:27:09.350 ,2,1,0.,24.0,0.,24.0,0.,24.0,0.,24.0
1979-03-01 02:27:33.350 ,3,1,0.,24.0,0.,24.0,0.,24.0,0.,24.0
1979-03-01 02:27:57.350 ,4,1,0.,24.0,0.,24.0,0.,24.0,0.,24.0
1979-03-01 02:28:21.350 ,5,1,0.,24.0,0.,24.0,0.,24.0,0.,24.0
1979-03-01 02:28:45.350 ,6,1,0.,24.0,0.,24.0,0.,24.0,0.,24.0
1979-03-01 02:29:09.350 ,7,1,0.,24.0,0.,24.0,0.,24.0,0.,24.0
1979-03-01 02:29:33.350 ,7,1,0.,24.0,0.,24.0,0.,24.0,0.,24.0
1979-03-01 02:29:57.350 ,6,1,0.,24.0,0.,24.0,0.,24.0,0.,24.0
1979-03-01 02:30:21.350 ,5,1,0.,24.0,0.,24.0,0.,24.0,0.,24.0
1979-03-01 02:30:45.350 ,4,1,0.,24.0,0.,24.0,0.,24.0,0.,24.0
1979-03-01 02:31:09.350 ,3,1,0.,24.0,0.,24.0,0.,24.0,0.,24.0
1979-03-01 02:31:33.350 ,2,1,0.,24.0,0.,24.0,0.,24.0,0.,24.0
1979-03-01 02:31:57.350 ,1,1,0.,24.0,0.,24.0,0.,24.0,0.,24.0
1979-03-01 02:32:21.350 ,0,1,0.,24.0,0.,24.0,0.,24.0,0.,24.0
1979-03-01 02:32:45.350 ,0,1,0.,24.0,0.,24.0,0.,24.0,0.,24.0
1979-03-01 02:33:09.350 ,1,1,0.,24.0,0.,24.0,0.,24.0,0.,24.0
1979-03-01 02:33:33.350 ,2,1,0.,24.0,0.,24.0,0.,24.0,0.,24.0
1979-03-01 02:33:57.350 ,3,1,0.,24.0,0.,24.0,0.,24.0,0.,24.0
1979-03-01 02:34:21.350 ,4,1,0.,24.0,0.,24.0,0.,24.0,0.,24.0
1979-03-01 02:34:45.350 ,5,1,0.,24.0,0.,24.0,0.,24.0,0.,24.0
1979-03-01 02:35:09.350 ,6,1,0.,24.0,0.,24.0,0.,24.0,0.,24.0
1979-03-01 02:35:33.350 ,7,1,0.,24.0,0.,24.0,0.,24.0,0.,24.0
1979-03-01 02:35:57.350 ,7,1,0.,24.0,0.,24.0,0.,24.0,0.,24.0
1979-03-01 02:36:21.350 ,6,1,0.,24.0,0.,24.0,0.,24.0,0.,24.0
1979-03-01 02:36:45.350 ,5,1,0.,24.0,0.,24.0,0.,24.0,0.,24.0
1979-03-01 02:37:09.350 ,4,1,0.,24.0,0.,24.0,0.,24.0,0.,24.0
1979-03-01 02:37:33.350 ,3,1,0.,24.0,0.,24.0,0.,24.0,0.,24.0